,,,PA_Meas_PMT16A,,PR_Meas_QMR101_102,,RH_Meas_QMH101,,SR_Meas_QMS101,,TA_Meas_QMH101,,GenWind,,GenWind,
date,time,status,PA,status,PR,status,RH,status,SR,status,TA,status,DirAvg,status,SpdAvg,
2008-08-16, 00:00:05,VALID,1009.54,VALID,0,VALID,92.9046,VALID,0,VALID,24.5496,VALID,46,VALID,1.04102,
2008-08-16, 00:01:05,VALID,1009.54,VALID,0,VALID,92.9427,VALID,0.105969,VALID,24.5106,VALID,38,VALID,1.15859,
2008-08-16, 00:02:05,VALID,1009.52,VALID,0,VALID,93.0113,VALID,0.105969,VALID,24.4911,VALID,37,VALID,0.843359,
2008-08-16, 00:03:05,VALID,1009.53,VALID,0,VALID,93.1257,VALID,0.105969,VALID,24.4911,VALID,12,VALID,0.878516,
2008-08-16, 00:04:05,VALID,1009.51,VALID,0,VALID,93.1943,VALID,0.105969,VALID,24.4522,VALID,38,VALID,0.539063,
2008-08-16, 00:05:05,VALID,1009.52,VALID,0,VALID,93.2706,VALID,0.105969,VALID,24.4327,VALID,41,VALID,0.539453,
2008-08-16, 00:06:05,VALID,1009.53,VALID,0,VALID,93.3545,VALID,0.105969,VALID,24.4327,VALID,47,VALID,0.408203,
2008-08-16, 00:07:05,VALID,1009.5,VALID,0,VALID,93.3773,VALID,0.105969,VALID,24.4132,VALID,44,VALID,0.728906,
2008-08-16, 00:08:05,VALID,1009.46,VALID,0,VALID,93.4841,VALID,0.105969,VALID,24.3937,VALID,29,VALID,0.602734,
2008-08-16, 00:09:05,VALID,1009.45,VALID,0,VALID,93.5222,VALID,0,VALID,24.4132,VALID,24,VALID,0.333984,
2008-08-16, 00:10:05,VALID,1009.44,VALID,0,VALID,93.5451,VALID,0.105969,VALID,24.3742,VALID,3,VALID,0.514453,
2008-08-16, 00:11:05,VALID,1009.4,VALID,0,VALID,93.5832,VALID,0.105969,VALID,24.3742,VALID,11,VALID,0.529688,
2008-08-16, 00:12:05,VALID,1009.36,VALID,0,VALID,93.6061,VALID,0,VALID,24.3352,VALID,18,VALID,0.789844,
2008-08-16, 00:13:05,VALID,1009.34,VALID,0,VALID,93.6442,VALID,0.105969,VALID,24.3158,VALID,14,VALID,0.598437,
2008-08-16, 00:14:05,VALID,1009.36,VALID,0,VALID,93.7053,VALID,0.105969,VALID,24.3158,VALID,41,VALID,0.543359,
2008-08-16, 00:15:05,VALID,1009.36,VALID,0,VALID,93.7968,VALID,0.105969,VALID,24.2963,VALID,30,VALID,0.645312,
2008-08-16, 00:16:05,VALID,1009.34,VALID,0,VALID,93.8196,VALID,0,VALID,24.2963,VALID,32,VALID,0.738281,
2008-08-16, 00:17:05,VALID,1009.34,VALID,0,VALID,93.8502,VALID,0.105969,VALID,24.2768,VALID,31,VALID,0.397266,
2008-08-16, 00:18:05,VALID,1009.35,VALID,0,VALID,93.8883,VALID,0,VALID,24.2981,VALID,37,VALID,0.165234,
2008-08-16, 00:19:05,VALID,1009.34,VALID,0,VALID,93.9264,VALID,0,VALID,24.2573,VALID,49,VALID,0.229297,
2008-08-16, 00:20:05,VALID,1009.35,VALID,0,VALID,93.9188,VALID,0,VALID,24.2573,VALID,49,VALID,0.0875,
2008-08-16, 00:21:05,VALID,1009.39,VALID,0,VALID,93.934,VALID,0,VALID,24.2591,VALID,65,VALID,0.206641,
2008-08-16, 00:22:05,VALID,1009.36,VALID,0,VALID,93.9417,VALID,0,VALID,24.2786,VALID,65,VALID,0.248828,
2008-08-16, 00:23:05,VALID,1009.31,VALID,0,VALID,93.9722,VALID,0,VALID,24.2573,VALID,65,VALID,0.155469,
2008-08-16, 00:24:05,VALID,1009.3,VALID,0,VALID,93.9493,VALID,0,VALID,24.2396,VALID,12,VALID,0.505469,
2008-08-16, 00:25:05,VALID,1009.31,VALID,0,VALID,93.9417,VALID,0.105969,VALID,24.2591,VALID,360,VALID,0.441016,
2008-08-16, 00:26:05,VALID,1009.27,VALID,0,VALID,93.9798,VALID,0,VALID,24.2591,VALID,360,VALID,0.0753906,
2008-08-16, 00:27:05,VALID,1009.27,VALID,0,VALID,93.9569,VALID,0,VALID,24.2183,VALID,360,VALID,0.303516,
2008-08-16, 00:28:05,VALID,1009.24,VALID,0,VALID,93.9264,VALID,0,VALID,24.2396,VALID,360,VALID,0.392578,
2008-08-16, 00:29:05,VALID,1009.25,VALID,0,VALID,93.9188,VALID,0,VALID,24.2202,VALID,360,VALID,0.432813,
2008-08-16, 00:30:05,VALID,1009.26,VALID,0,VALID,93.9722,VALID,0,VALID,24.2202,VALID,360,VALID,0.171875,
2008-08-16, 00:31:05,VALID,1009.24,VALID,0,VALID,93.9645,VALID,0,VALID,24.1988,VALID,360,VALID,0.147266,
2008-08-16, 00:32:05,VALID,1009.26,VALID,0,VALID,93.9798,VALID,0.105969,VALID,24.2007,VALID,360,VALID,0,
2008-08-16, 00:33:05,VALID,1009.24,VALID,0,VALID,93.995,VALID,0,VALID,24.2007,VALID,360,VALID,0,
2008-08-16, 00:34:05,VALID,1009.25,VALID,0,VALID,94.0408,VALID,0,VALID,24.1793,VALID,360,VALID,0,
2008-08-16, 00:35:05,VALID,1009.26,VALID,0,VALID,94.0865,VALID,0,VALID,24.1793,VALID,360,VALID,0,
2008-08-16, 00:36:05,VALID,1009.24,VALID,0,VALID,94.0942,VALID,0,VALID,24.1793,VALID,360,VALID,0,
2008-08-16, 00:37:05,VALID,1009.25,VALID,0,VALID,94.1018,VALID,0,VALID,24.1793,VALID,360,VALID,0,
2008-08-16, 00:38:05,VALID,1009.29,VALID,0,VALID,94.1171,VALID,0,VALID,24.1812,VALID,360,VALID,0,
2008-08-16, 00:39:05,VALID,1009.28,VALID,0,VALID,94.1476,VALID,0,VALID,24.1793,VALID,360,VALID,0,
2008-08-16, 00:40:05,VALID,1009.25,VALID,0,VALID,94.1476,VALID,0,VALID,24.1793,VALID,360,VALID,0,
2008-08-16, 00:41:05,VALID,1009.31,VALID,0,VALID,94.1781,VALID,0,VALID,24.2007,VALID,360,VALID,0,
2008-08-16, 00:42:05,VALID,1009.27,VALID,0,VALID,94.1781,VALID,0,VALID,24.1988,VALID,360,VALID,0,
2008-08-16, 00:43:05,VALID,1009.29,VALID,0,VALID,94.1933,VALID,0,VALID,24.2007,VALID,360,VALID,0,
2008-08-16, 00:44:05,VALID,1009.29,VALID,0,VALID,94.1857,VALID,0,VALID,24.2007,VALID,360,VALID,0,
2008-08-16, 00:45:05,VALID,1009.28,VALID,0,VALID,94.1476,VALID,0,VALID,24.2202,VALID,360,VALID,0,
2008-08-16, 00:46:05,VALID,1009.28,VALID,0,VALID,94.1323,VALID,0,VALID,24.1988,VALID,360,VALID,0,
2008-08-16, 00:47:05,VALID,1009.29,VALID,0,VALID,94.1247,VALID,0,VALID,24.1793,VALID,360,VALID,0,
2008-08-16, 00:48:05,VALID,1009.3,VALID,0,VALID,94.1247,VALID,0,VALID,24.2007,VALID,360,VALID,0,
2008-08-16, 00:49:05,VALID,1009.29,VALID,0,VALID,94.1552,VALID,0,VALID,24.2007,VALID,360,VALID,0,
2008-08-16, 00:50:05,VALID,1009.29,VALID,0,VALID,94.1628,VALID,0,VALID,24.1793,VALID,360,VALID,0.333203,
2008-08-16, 00:51:05,VALID,1009.29,VALID,0,VALID,94.2009,VALID,0,VALID,24.1812,VALID,360,VALID,0.423047,
2008-08-16, 00:52:05,VALID,1009.27,VALID,0,VALID,94.2314,VALID,0,VALID,24.1599,VALID,22,VALID,0.547656,
2008-08-16, 00:53:05,VALID,1009.27,VALID,0,VALID,94.2543,VALID,0,VALID,24.1617,VALID,22,VALID,0.552344,
2008-08-16, 00:54:05,VALID,1009.26,VALID,0,VALID,94.2619,VALID,0,VALID,24.1617,VALID,11,VALID,0.530859,
2008-08-16, 00:55:05,VALID,1009.24,VALID,0,VALID,94.2314,VALID,0,VALID,24.1227,VALID,360,VALID,0.703906,
2008-08-16, 00:56:05,VALID,1009.22,VALID,0,VALID,94.2238,VALID,0,VALID,24.1227,VALID,350,VALID,0.634766,
2008-08-16, 00:57:05,VALID,1009.19,VALID,0,VALID,94.1781,VALID,0,VALID,24.0837,VALID,349,VALID,0.483203,
2008-08-16, 00:58:05,VALID,1009.2,VALID,0,VALID,94.2009,VALID,0,VALID,24.0837,VALID,347,VALID,0.426562,
2008-08-16, 00:59:05,VALID,1009.18,VALID,0,VALID,94.1171,VALID,0,VALID,24.0429,VALID,354,VALID,0.659375,
2008-08-16, 01:00:05,VALID,1009.18,VALID,0,VALID,94.0789,VALID,0,VALID,24.0253,VALID,335,VALID,0.603906,
2008-08-16, 01:01:05,VALID,1009.2,VALID,0,VALID,94.0789,VALID,0,VALID,24.0058,VALID,340,VALID,0.5375,
2008-08-16, 01:02:05,VALID,1009.18,VALID,0,VALID,93.995,VALID,0,VALID,23.9863,VALID,350,VALID,0.493359,
2008-08-16, 01:03:05,VALID,1009.18,VALID,0,VALID,94.0332,VALID,0,VALID,23.9668,VALID,351,VALID,0.496875,
2008-08-16, 01:04:05,VALID,1009.17,VALID,0,VALID,94.0103,VALID,0,VALID,23.9473,VALID,319,VALID,0.280469,
2008-08-16, 01:05:05,VALID,1009.18,VALID,0,VALID,93.8883,VALID,0,VALID,23.8871,VALID,336,VALID,0.764844,
2008-08-16, 01:06:05,VALID,1009.18,VALID,0,VALID,93.8349,VALID,0,VALID,23.8889,VALID,321,VALID,0.533203,
2008-08-16, 01:07:05,VALID,1009.2,VALID,0,VALID,93.8196,VALID,0,VALID,23.8889,VALID,349,VALID,0.273438,
2008-08-16, 01:08:05,VALID,1009.21,VALID,0,VALID,93.7891,VALID,0,VALID,23.8676,VALID,349,VALID,0.291016,
2008-08-16, 01:09:05,VALID,1009.23,VALID,0,VALID,93.8425,VALID,0,VALID,23.8481,VALID,349,VALID,0.0375,
2008-08-16, 01:10:05,VALID,1009.22,VALID,0,VALID,93.934,VALID,0,VALID,23.8481,VALID,349,VALID,0,
2008-08-16, 01:11:05,VALID,1009.23,VALID,0,VALID,93.9722,VALID,0,VALID,23.8676,VALID,349,VALID,0,
2008-08-16, 01:12:05,VALID,1009.2,VALID,0,VALID,93.9722,VALID,0,VALID,23.8889,VALID,349,VALID,0,
2008-08-16, 01:13:05,VALID,1009.2,VALID,0,VALID,93.934,VALID,0,VALID,23.8694,VALID,349,VALID,0,
2008-08-16, 01:14:05,VALID,1009.18,VALID,0,VALID,93.9798,VALID,0,VALID,23.8481,VALID,349,VALID,0,
2008-08-16, 01:15:05,VALID,1009.18,VALID,0,VALID,93.995,VALID,0,VALID,23.8481,VALID,349,VALID,0,
2008-08-16, 01:16:05,VALID,1009.19,VALID,0,VALID,93.9645,VALID,0.105969,VALID,23.8268,VALID,349,VALID,0,
2008-08-16, 01:17:05,VALID,1009.2,VALID,0,VALID,93.9188,VALID,0,VALID,23.8091,VALID,349,VALID,0.00234375,
2008-08-16, 01:18:05,VALID,1009.18,VALID,0,VALID,93.8807,VALID,0,VALID,23.8304,VALID,349,VALID,0.326953,
2008-08-16, 01:19:05,VALID,1009.17,VALID,0,VALID,93.8273,VALID,0,VALID,23.7896,VALID,349,VALID,0.249609,
2008-08-16, 01:20:05,VALID,1009.16,VALID,0,VALID,93.7358,VALID,0,VALID,23.7701,VALID,1,VALID,0.448047,
2008-08-16, 01:21:05,VALID,1009.15,VALID,0,VALID,93.6748,VALID,0,VALID,23.7701,VALID,11,VALID,0.473047,
2008-08-16, 01:22:05,VALID,1009.13,VALID,0,VALID,93.6137,VALID,0,VALID,23.7507,VALID,11,VALID,0.355469,
2008-08-16, 01:23:05,VALID,1009.14,VALID,0,VALID,93.6137,VALID,0.105969,VALID,23.7507,VALID,11,VALID,0.385938,
2008-08-16, 01:24:05,VALID,1009.15,VALID,0,VALID,93.5756,VALID,0.105969,VALID,23.7117,VALID,11,VALID,0.269141,
2008-08-16, 01:25:05,VALID,1009.16,VALID,0,VALID,93.6366,VALID,0.105969,VALID,23.6922,VALID,11,VALID,0.177344,
2008-08-16, 01:26:05,VALID,1009.15,VALID,0,VALID,93.69,VALID,0.105969,VALID,23.7135,VALID,11,VALID,0.201562,
2008-08-16, 01:27:05,VALID,1009.17,VALID,0,VALID,93.69,VALID,0,VALID,23.6532,VALID,11,VALID,0.365625,
2008-08-16, 01:28:05,VALID,1009.14,VALID,0,VALID,93.6976,VALID,0,VALID,23.655,VALID,10,VALID,0.49375,
2008-08-16, 01:29:05,VALID,1009.15,VALID,0,VALID,93.6824,VALID,0,VALID,23.6338,VALID,2,VALID,0.707812,
2008-08-16, 01:30:05,VALID,1009.14,VALID,0,VALID,93.6824,VALID,0.105969,VALID,23.6143,VALID,355,VALID,0.723828,
2008-08-16, 01:31:05,VALID,1009.13,VALID,0,VALID,93.7281,VALID,0,VALID,23.6143,VALID,354,VALID,0.557031,
2008-08-16, 01:32:05,VALID,1009.13,VALID,0,VALID,93.751,VALID,0.105969,VALID,23.5948,VALID,5,VALID,0.352734,
2008-08-16, 01:33:05,VALID,1009.13,VALID,0,VALID,93.7663,VALID,0,VALID,23.5771,VALID,5,VALID,0.225391,
2008-08-16, 01:34:05,VALID,1009.14,VALID,0,VALID,93.7663,VALID,0,VALID,23.5576,VALID,5,VALID,0.294141,
2008-08-16, 01:35:05,VALID,1009.16,VALID,0,VALID,93.8044,VALID,0,VALID,23.5771,VALID,356,VALID,0.251953,
2008-08-16, 01:36:05,VALID,1009.17,VALID,0,VALID,93.8654,VALID,0,VALID,23.5576,VALID,350,VALID,0.239844,
2008-08-16, 01:37:05,VALID,1009.16,VALID,0,VALID,93.8502,VALID,0,VALID,23.5576,VALID,353,VALID,0.402344,
2008-08-16, 01:38:05,VALID,1009.16,VALID,0,VALID,93.8502,VALID,0,VALID,23.5576,VALID,358,VALID,0.344141,
2008-08-16, 01:39:05,VALID,1009.15,VALID,0,VALID,93.8502,VALID,0,VALID,23.5381,VALID,353,VALID,0.295703,
2008-08-16, 01:40:05,VALID,1009.18,VALID,0,VALID,93.8349,VALID,0,VALID,23.5186,VALID,355,VALID,0.460156,
2008-08-16, 01:41:05,VALID,1009.17,VALID,0,VALID,93.8502,VALID,0,VALID,23.5186,VALID,356,VALID,0,
2008-08-16, 01:42:05,VALID,1009.18,VALID,0,VALID,93.8883,VALID,0,VALID,23.5186,VALID,356,VALID,0.154297,
2008-08-16, 01:43:05,VALID,1009.18,VALID,0,VALID,93.8883,VALID,0,VALID,23.5186,VALID,352,VALID,0.158203,
2008-08-16, 01:44:05,VALID,1009.17,VALID,0,VALID,93.934,VALID,0,VALID,23.4992,VALID,352,VALID,0.0464844,
2008-08-16, 01:45:05,VALID,1009.15,VALID,0,VALID,93.9264,VALID,0,VALID,23.5204,VALID,312,VALID,0.290625,
2008-08-16, 01:46:05,VALID,1009.17,VALID,0,VALID,93.8883,VALID,0.105969,VALID,23.4974,VALID,312,VALID,0.0238281,
2008-08-16, 01:47:05,VALID,1009.16,VALID,0,VALID,93.8502,VALID,0,VALID,23.4992,VALID,312,VALID,0.167578,
2008-08-16, 01:48:05,VALID,1009.16,VALID,0,VALID,93.7968,VALID,0,VALID,23.4584,VALID,45,VALID,0.678906,
2008-08-16, 01:49:05,VALID,1009.15,VALID,0,VALID,93.6519,VALID,0,VALID,23.4602,VALID,41,VALID,0.148438,
2008-08-16, 01:50:05,VALID,1009.12,VALID,0,VALID,93.6748,VALID,0,VALID,23.4389,VALID,41,VALID,0.151172,
2008-08-16, 01:51:05,VALID,1009.13,VALID,0,VALID,93.7968,VALID,0.105969,VALID,23.4584,VALID,41,VALID,0,
2008-08-16, 01:52:05,VALID,1009.1,VALID,0,VALID,93.7358,VALID,0,VALID,23.4584,VALID,349,VALID,0.591406,
2008-08-16, 01:53:05,VALID,1009.09,VALID,0,VALID,93.6671,VALID,0.105969,VALID,23.4584,VALID,303,VALID,0.394531,
2008-08-16, 01:54:05,VALID,1009.07,VALID,0,VALID,93.7281,VALID,0,VALID,23.4797,VALID,299,VALID,0.119141,
2008-08-16, 01:55:05,VALID,1009.1,VALID,0,VALID,93.7434,VALID,0.105969,VALID,23.4584,VALID,299,VALID,0.136328,
2008-08-16, 01:56:05,VALID,1009.08,VALID,0,VALID,93.7053,VALID,0,VALID,23.4797,VALID,309,VALID,0.112109,
2008-08-16, 01:57:05,VALID,1009.08,VALID,0,VALID,93.6366,VALID,0,VALID,23.4602,VALID,320,VALID,0.0117188,
2008-08-16, 01:58:05,VALID,1009.11,VALID,0,VALID,93.6061,VALID,0.105969,VALID,23.4194,VALID,19,VALID,0.296094,
2008-08-16, 01:59:05,VALID,1009.1,VALID,0,VALID,93.5832,VALID,0,VALID,23.4212,VALID,19,VALID,0.200391,
2008-08-16, 02:00:05,VALID,1009.12,VALID,0,VALID,93.5832,VALID,0.105969,VALID,23.4,VALID,19,VALID,0.0863281,
2008-08-16, 02:01:05,VALID,1009.13,VALID,0,VALID,93.6671,VALID,0,VALID,23.423,VALID,19,VALID,0.00429688,
2008-08-16, 02:02:05,VALID,1009.13,VALID,0,VALID,93.6824,VALID,0,VALID,23.4017,VALID,19,VALID,0,
2008-08-16, 02:03:05,VALID,1009.16,VALID,0,VALID,93.6824,VALID,0,VALID,23.3823,VALID,19,VALID,0.107031,
2008-08-16, 02:04:05,VALID,1009.17,VALID,0,VALID,93.69,VALID,0,VALID,23.3823,VALID,19,VALID,0,
2008-08-16, 02:05:04,VALID,1009.18,VALID,0,VALID,93.7358,VALID,0,VALID,23.3823,VALID,19,VALID,0,
2008-08-16, 02:06:04,VALID,1009.19,VALID,0,VALID,93.7815,VALID,0,VALID,23.3823,VALID,348,VALID,0.244922,
2008-08-16, 02:07:04,VALID,1009.17,VALID,0,VALID,93.7815,VALID,0,VALID,23.3823,VALID,349,VALID,0.195313,
2008-08-16, 02:08:04,VALID,1009.15,VALID,0,VALID,93.8196,VALID,0,VALID,23.3823,VALID,349,VALID,0.144922,
2008-08-16, 02:09:04,VALID,1009.16,VALID,0,VALID,93.8502,VALID,0,VALID,23.3628,VALID,349,VALID,0.0933594,
2008-08-16, 02:10:04,VALID,1009.17,VALID,0,VALID,93.9112,VALID,0,VALID,23.3628,VALID,349,VALID,0.0078125,
2008-08-16, 02:11:04,VALID,1009.16,VALID,0,VALID,93.934,VALID,0,VALID,23.3628,VALID,349,VALID,0.00507812,
2008-08-16, 02:12:04,VALID,1009.2,VALID,0,VALID,93.934,VALID,0,VALID,23.3628,VALID,349,VALID,0,
2008-08-16, 02:13:04,VALID,1009.21,VALID,0,VALID,93.9722,VALID,0,VALID,23.3433,VALID,349,VALID,0.1,
2008-08-16, 02:14:04,VALID,1009.22,VALID,0,VALID,94.0103,VALID,0,VALID,23.3238,VALID,349,VALID,0,
2008-08-16, 02:15:04,VALID,1009.23,VALID,0,VALID,94.0255,VALID,0,VALID,23.3238,VALID,349,VALID,0,
2008-08-16, 02:16:04,VALID,1009.22,VALID,0,VALID,94.056,VALID,0.105969,VALID,23.3026,VALID,349,VALID,0,
2008-08-16, 02:17:04,VALID,1009.22,VALID,0,VALID,94.0942,VALID,0.105969,VALID,23.322,VALID,349,VALID,0,
2008-08-16, 02:18:04,VALID,1009.23,VALID,0,VALID,94.1552,VALID,0,VALID,23.3026,VALID,349,VALID,0,
2008-08-16, 02:19:04,VALID,1009.24,VALID,0,VALID,94.1933,VALID,0,VALID,23.322,VALID,349,VALID,0,
2008-08-16, 02:20:04,VALID,1009.25,VALID,0,VALID,94.2314,VALID,0.105969,VALID,23.3415,VALID,349,VALID,0.00117188,
2008-08-16, 02:21:04,VALID,1009.22,VALID,0,VALID,94.2314,VALID,0.105969,VALID,23.3433,VALID,349,VALID,0.157422,
2008-08-16, 02:22:04,VALID,1009.24,VALID,0,VALID,94.2772,VALID,0.105969,VALID,23.322,VALID,29,VALID,0.457422,
2008-08-16, 02:23:04,VALID,1009.24,VALID,0,VALID,94.3229,VALID,0.105969,VALID,23.322,VALID,73,VALID,0.451953,
2008-08-16, 02:24:04,VALID,1009.24,VALID,0,VALID,94.3229,VALID,0.105969,VALID,23.3415,VALID,73,VALID,0.410547,
2008-08-16, 02:25:04,VALID,1009.23,VALID,0,VALID,94.3306,VALID,0,VALID,23.322,VALID,73,VALID,0.310156,
2008-08-16, 02:26:04,VALID,1009.23,VALID,0,VALID,94.3001,VALID,0.105969,VALID,23.361,VALID,73,VALID,0.230469,
2008-08-16, 02:27:04,VALID,1009.21,VALID,0,VALID,94.2924,VALID,0.105969,VALID,23.361,VALID,73,VALID,0.384766,
2008-08-16, 02:28:04,VALID,1009.21,VALID,0,VALID,94.2924,VALID,0,VALID,23.361,VALID,73,VALID,0.571094,
2008-08-16, 02:29:04,VALID,1009.17,VALID,0,VALID,94.2238,VALID,0.105969,VALID,23.361,VALID,73,VALID,0.325,
2008-08-16, 02:30:04,VALID,1009.17,VALID,0,VALID,94.2314,VALID,0.105969,VALID,23.361,VALID,73,VALID,0.248047,
2008-08-16, 02:31:04,VALID,1009.16,VALID,0,VALID,94.2543,VALID,0.105969,VALID,23.3805,VALID,73,VALID,0.260547,
2008-08-16, 02:32:04,VALID,1009.16,VALID,0,VALID,94.2391,VALID,0.105969,VALID,23.361,VALID,73,VALID,0,
2008-08-16, 02:33:04,VALID,1009.14,VALID,0,VALID,94.2238,VALID,0.105969,VALID,23.361,VALID,73,VALID,0,
2008-08-16, 02:34:04,VALID,1009.16,VALID,0,VALID,94.2467,VALID,0.105969,VALID,23.3805,VALID,73,VALID,0,
2008-08-16, 02:35:04,VALID,1009.17,VALID,0,VALID,94.2238,VALID,0.105969,VALID,23.3805,VALID,73,VALID,0,
2008-08-16, 02:36:04,VALID,1009.14,VALID,0,VALID,94.2772,VALID,0.105969,VALID,23.4017,VALID,73,VALID,0,
2008-08-16, 02:37:04,VALID,1009.15,VALID,0,VALID,94.3077,VALID,0.105969,VALID,23.3805,VALID,73,VALID,0,
2008-08-16, 02:38:04,VALID,1009.19,VALID,0,VALID,94.2391,VALID,0.105969,VALID,23.3805,VALID,51,VALID,0.348828,
2008-08-16, 02:39:04,VALID,1009.17,VALID,0,VALID,94.2086,VALID,0.105969,VALID,23.3805,VALID,15,VALID,0.112891,
2008-08-16, 02:40:04,VALID,1009.15,VALID,0,VALID,94.1628,VALID,0.105969,VALID,23.361,VALID,12,VALID,0.262891,
2008-08-16, 02:41:04,VALID,1009.15,VALID,0,VALID,94.1552,VALID,0.105969,VALID,23.3823,VALID,11,VALID,0.242188,
2008-08-16, 02:42:04,VALID,1009.15,VALID,0,VALID,94.1933,VALID,0.105969,VALID,23.3805,VALID,11,VALID,0.166016,
2008-08-16, 02:43:04,VALID,1009.15,VALID,0,VALID,94.1933,VALID,0.105969,VALID,23.4,VALID,11,VALID,0.00078125,
2008-08-16, 02:44:04,VALID,1009.13,VALID,0,VALID,94.1781,VALID,0.105969,VALID,23.4017,VALID,47,VALID,0.553906,
2008-08-16, 02:45:04,VALID,1009.13,VALID,0,VALID,94.1781,VALID,0.105969,VALID,23.3805,VALID,61,VALID,0.141406,
2008-08-16, 02:46:04,VALID,1009.11,VALID,0,VALID,94.2009,VALID,0.105969,VALID,23.3805,VALID,61,VALID,0.141797,
2008-08-16, 02:47:04,VALID,1009.08,VALID,0,VALID,94.2162,VALID,0.105969,VALID,23.4017,VALID,61,VALID,0,
2008-08-16, 02:48:04,VALID,1009.09,VALID,0,VALID,94.1704,VALID,0,VALID,23.3823,VALID,61,VALID,0,
2008-08-16, 02:49:04,VALID,1009.1,VALID,0,VALID,94.1933,VALID,0.105969,VALID,23.3805,VALID,61,VALID,0,
2008-08-16, 02:50:04,VALID,1009.09,VALID,0,VALID,94.2238,VALID,0.105969,VALID,23.361,VALID,61,VALID,0,
2008-08-16, 02:51:04,VALID,1009.09,VALID,0,VALID,94.2772,VALID,0.105969,VALID,23.3805,VALID,61,VALID,0,
2008-08-16, 02:52:04,VALID,1009.08,VALID,0,VALID,94.3001,VALID,0.105969,VALID,23.3805,VALID,61,VALID,0,
2008-08-16, 02:53:04,VALID,1009.11,VALID,0,VALID,94.3458,VALID,0.105969,VALID,23.3805,VALID,61,VALID,0,
2008-08-16, 02:54:04,VALID,1009.13,VALID,0,VALID,94.4297,VALID,0.211938,VALID,23.3592,VALID,61,VALID,0,
2008-08-16, 02:55:04,VALID,1009.13,VALID,0,VALID,94.3916,VALID,0.105969,VALID,23.361,VALID,61,VALID,0,
2008-08-16, 02:56:04,VALID,1009.15,VALID,0,VALID,94.4145,VALID,0,VALID,23.361,VALID,61,VALID,0,
2008-08-16, 02:57:04,VALID,1009.11,VALID,0,VALID,94.4373,VALID,0.105969,VALID,23.3805,VALID,61,VALID,0,
2008-08-16, 02:58:04,VALID,1009.15,VALID,0,VALID,94.445,VALID,0.105969,VALID,23.3805,VALID,61,VALID,0,
2008-08-16, 02:59:04,VALID,1009.15,VALID,0,VALID,94.4373,VALID,0.105969,VALID,23.4017,VALID,61,VALID,0,
2008-08-16, 03:00:04,VALID,1009.13,VALID,0,VALID,94.4755,VALID,0.105969,VALID,23.3823,VALID,61,VALID,0,
2008-08-16, 03:01:04,VALID,1009.13,VALID,0,VALID,94.445,VALID,0.105969,VALID,23.3415,VALID,61,VALID,0,
2008-08-16, 03:02:04,VALID,1009.13,VALID,0,VALID,94.4831,VALID,0,VALID,23.3628,VALID,61,VALID,0,
2008-08-16, 03:03:04,VALID,1009.14,VALID,0,VALID,94.4831,VALID,0,VALID,23.361,VALID,61,VALID,0,
2008-08-16, 03:04:04,VALID,1009.14,VALID,0,VALID,94.5365,VALID,0.105969,VALID,23.361,VALID,61,VALID,0,
2008-08-16, 03:05:04,VALID,1009.14,VALID,0,VALID,94.5746,VALID,0.105969,VALID,23.3805,VALID,61,VALID,0,
2008-08-16, 03:06:04,VALID,1009.16,VALID,0,VALID,94.6127,VALID,0.105969,VALID,23.4,VALID,61,VALID,0,
2008-08-16, 03:07:04,VALID,1009.16,VALID,0,VALID,94.6127,VALID,0.105969,VALID,23.3805,VALID,61,VALID,0,
2008-08-16, 03:08:04,VALID,1009.17,VALID,0,VALID,94.5746,VALID,0,VALID,23.3805,VALID,61,VALID,0,
2008-08-16, 03:09:04,VALID,1009.18,VALID,0,VALID,94.5975,VALID,0.105969,VALID,23.4,VALID,61,VALID,0,
2008-08-16, 03:10:04,VALID,1009.18,VALID,0,VALID,94.6051,VALID,0,VALID,23.4212,VALID,61,VALID,0,
2008-08-16, 03:11:04,VALID,1009.2,VALID,0,VALID,94.6356,VALID,0,VALID,23.4,VALID,61,VALID,0,
2008-08-16, 03:12:04,VALID,1009.2,VALID,0,VALID,94.6508,VALID,0.105969,VALID,23.4194,VALID,49,VALID,0,
2008-08-16, 03:13:04,VALID,1009.21,VALID,0,VALID,94.7195,VALID,0.105969,VALID,23.4407,VALID,49,VALID,0,
2008-08-16, 03:14:04,VALID,1009.2,VALID,0,VALID,94.6737,VALID,0,VALID,23.4407,VALID,49,VALID,0,
2008-08-16, 03:15:04,VALID,1009.19,VALID,0,VALID,94.6737,VALID,0,VALID,23.4797,VALID,49,VALID,0,
2008-08-16, 03:16:04,VALID,1009.19,VALID,0,VALID,94.6585,VALID,0,VALID,23.4389,VALID,49,VALID,0,
2008-08-16, 03:17:04,VALID,1009.19,VALID,0,VALID,94.6661,VALID,0.105969,VALID,23.4584,VALID,49,VALID,0,
2008-08-16, 03:18:04,VALID,1009.2,VALID,0,VALID,94.689,VALID,0.105969,VALID,23.4584,VALID,49,VALID,0,
2008-08-16, 03:19:04,VALID,1009.21,VALID,0,VALID,94.6737,VALID,0,VALID,23.4584,VALID,49,VALID,0,
2008-08-16, 03:20:04,VALID,1009.22,VALID,0,VALID,94.6737,VALID,0.105969,VALID,23.4584,VALID,49,VALID,0,
2008-08-16, 03:21:04,VALID,1009.22,VALID,0,VALID,94.6661,VALID,0.105969,VALID,23.4584,VALID,49,VALID,0,
2008-08-16, 03:22:04,VALID,1009.19,VALID,0,VALID,94.6661,VALID,0.105969,VALID,23.4797,VALID,49,VALID,0,
2008-08-16, 03:23:04,VALID,1009.22,VALID,0,VALID,94.6432,VALID,0,VALID,23.4584,VALID,49,VALID,0,
2008-08-16, 03:24:04,VALID,1009.23,VALID,0,VALID,94.6966,VALID,0.105969,VALID,23.4779,VALID,52,VALID,0,
2008-08-16, 03:25:04,VALID,1009.21,VALID,0,VALID,94.6737,VALID,0.105969,VALID,23.4779,VALID,71,VALID,0.417969,
2008-08-16, 03:26:04,VALID,1009.2,VALID,0,VALID,94.6966,VALID,0,VALID,23.4974,VALID,71,VALID,0.461328,
2008-08-16, 03:27:04,VALID,1009.19,VALID,0,VALID,94.6432,VALID,0,VALID,23.5186,VALID,71,VALID,0.520703,
2008-08-16, 03:28:04,VALID,1009.17,VALID,0,VALID,94.6585,VALID,0.105969,VALID,23.5363,VALID,71,VALID,0.274219,
2008-08-16, 03:29:04,VALID,1009.21,VALID,0,VALID,94.6661,VALID,0.105969,VALID,23.5558,VALID,71,VALID,0.149219,
2008-08-16, 03:30:04,VALID,1009.21,VALID,0,VALID,94.6737,VALID,0,VALID,23.5966,VALID,72,VALID,0.558594,
2008-08-16, 03:31:04,VALID,1009.22,VALID,0,VALID,94.6127,VALID,0,VALID,23.5984,VALID,95,VALID,0.655859,
2008-08-16, 03:32:04,VALID,1009.26,VALID,0,VALID,94.5288,VALID,0,VALID,23.5771,VALID,100,VALID,0.901953,
2008-08-16, 03:33:04,VALID,1009.26,VALID,0,VALID,94.3611,VALID,0,VALID,23.5984,VALID,98,VALID,1.0957,
2008-08-16, 03:34:04,VALID,1009.27,VALID,0,VALID,94.2391,VALID,0,VALID,23.5771,VALID,100,VALID,0.877734,
2008-08-16, 03:35:04,VALID,1009.25,VALID,0,VALID,94.1171,VALID,0,VALID,23.5771,VALID,74,VALID,0.667969,
2008-08-16, 03:36:04,VALID,1009.23,VALID,0,VALID,94.0789,VALID,0,VALID,23.5966,VALID,71,VALID,0.326172,
2008-08-16, 03:37:04,VALID,1009.2,VALID,0,VALID,94.056,VALID,0,VALID,23.6179,VALID,26,VALID,0.580078,
2008-08-16, 03:38:04,VALID,1009.23,VALID,0,VALID,93.9645,VALID,0,VALID,23.6179,VALID,23,VALID,0.199219,
2008-08-16, 03:39:04,VALID,1009.22,VALID,0,VALID,93.9035,VALID,0,VALID,23.5984,VALID,29,VALID,0.285937,
2008-08-16, 03:40:04,VALID,1009.24,VALID,0,VALID,93.8807,VALID,0,VALID,23.5984,VALID,30,VALID,0.300781,
2008-08-16, 03:41:04,VALID,1009.27,VALID,0,VALID,93.8807,VALID,0,VALID,23.6179,VALID,30,VALID,0.0105469,
2008-08-16, 03:42:04,VALID,1009.26,VALID,0,VALID,93.9112,VALID,0,VALID,23.5966,VALID,32,VALID,0.451562,
2008-08-16, 03:43:04,VALID,1009.27,VALID,0,VALID,93.8654,VALID,0,VALID,23.5966,VALID,48,VALID,0.1875,
2008-08-16, 03:44:04,VALID,1009.25,VALID,0,VALID,93.8654,VALID,0,VALID,23.5984,VALID,62,VALID,0.544531,
2008-08-16, 03:45:04,VALID,1009.29,VALID,0,VALID,93.9035,VALID,0,VALID,23.5966,VALID,46,VALID,0.501953,